Location: Haliburton Scout Reserve
(45.0900°N, 78.3200°W)
Time: 07:27:58
(UTC-04:00)

MOZHAYETS 4 - Visible Passes

Search period start: 22 May 2022 00:00
Search period end: 01 June 2022 00:00
Orbit: 661 x 678 km, 98.2° (Epoch: 22 May)

Date Brightness Start Highest point End Pass type
(mag) Time Alt. Az. Time Alt. Az. Time Alt. Az.
22 May 8.9 02:53:06 12° SE 02:56:57 40° ENE 03:01:17 10° N visible
22 May 9.0 04:31:17 13° SW 04:34:10 23° W 04:37:50 10° NW visible
23 May 10.6 01:51:45 10° ENE 01:53:07 11° ENE 01:54:29 10° NE visible
23 May 7.7 03:25:59 18° SSE 03:29:25 84° ENE 03:34:04 10° NNW visible
24 May 10.0 02:21:49 10° ESE 02:25:16 21° ENE 02:28:44 10° NNE visible
24 May 8.1 03:58:51 18° SSW 04:02:02 46° W 04:06:30 10° NNW visible
25 May 8.9 02:53:32 11° SE 02:57:35 41° ENE 03:01:55 10° N visible
25 May 9.0 04:31:44 12° SW 04:34:49 23° W 04:38:28 10° NW visible
26 May 10.6 01:52:19 10° ENE 01:53:44 11° ENE 01:55:10 10° NE visible
26 May 7.7 03:26:25 16° SSE 03:30:02 85° ENE 03:34:42 10° NNW visible
27 May 10.0 02:22:25 10° ESE 02:25:53 22° ENE 02:29:23 10° NNE visible
27 May 8.1 03:59:18 17° SSW 04:02:39 46° W 04:07:07 10° NNW visible
28 May 8.9 02:53:59 11° SE 02:58:11 41° ENE 03:02:33 10° N visible
28 May 9.0 04:32:10 12° SW 04:35:25 22° W 04:39:04 10° NW visible
29 May 10.6 01:52:50 10° ENE 01:54:20 11° ENE 01:55:50 10° NE visible
29 May 7.7 03:26:52 15° SSE 03:30:39 86° ENE 03:35:18 10° NNW visible
30 May 10.0 02:22:59 10° ESE 02:26:29 22° ENE 02:30:00 10° NNE visible
30 May 8.1 03:59:45 15° SSW 04:03:15 45° W 04:07:43 10° NNW visible
31 May 8.9 02:54:27 10° SE 02:58:47 42° ENE 03:03:08 10° N visible
31 May 9.0 04:32:37 11° SW 04:36:01 22° W 04:39:39 10° NW visible
